Location: Bothwell
(41.7170°N, 112.2589°W)
Time: 00:45:20
(UTC+00:00)

Transit 2A - All Passes

Search period start: 12 May 2026 00:00
Search period end: 22 May 2026 00:00
Orbit: 593 x 950 km, 66.7° (Epoch: 11 May)

Date Brightness Start Highest point End Pass type
(mag) Time Alt. Az. Time Alt. Az. Time Alt. Az.
12 May - 00:25:10 10° SW 00:31:17 58° WNW 00:37:03 10° NNE daylight
12 May - 02:12:40 10° WNW 02:15:29 13° NW 02:18:14 10° N daylight
12 May - 07:29:44 10° N 07:33:21 19° NE 07:36:45 10° E visible
12 May - 09:12:02 10° NW 09:16:52 60° WSW 09:21:17 10° SSE visible
12 May - 22:08:38 10° SE 22:12:21 17° ESE 22:15:57 10° ENE daylight
12 May - 23:48:34 10° SSW 23:54:48 83° WNW 00:00:41 10° NNE daylight
13 May - 01:34:39 10° W 01:38:40 18° NW 01:42:31 10° N daylight
13 May - 06:53:55 10° N 06:56:34 14° NE 06:59:05 10° ENE visible
13 May - 08:35:32 10° NNW 08:40:30 84° ENE 08:45:00 10° SSE visible
13 May - 21:35:35 10° ESE 21:36:12 10° ESE 21:36:50 10° E daylight
13 May - 23:12:13 10° SSW 23:18:23 70° ESE 23:24:13 10° NE daylight
14 May - 00:57:04 10° W 01:01:55 24° NW 01:06:32 10° N daylight
14 May - 06:19:07 10° NNE 06:19:41 10° NNE 06:20:14 10° NE visible
14 May - 07:59:10 10° NNW 08:04:02 53° NE 08:08:27 10° SE visible
14 May - 09:43:30 10° WNW 09:46:26 16° WSW 09:49:14 10° SW visible
14 May - 22:36:07 10° S 22:42:02 47° ESE 22:47:39 10° NE daylight
15 May - 00:19:47 10° WSW 00:25:15 33° NW 00:30:25 10° NNE daylight
15 May - 07:22:55 10° NNW 07:27:28 35° NE 07:31:38 10° ESE visible
15 May - 09:06:18 10° NW 09:10:16 26° WSW 09:14:00 10° SSW visible
15 May - 22:00:19 10° S 22:05:44 32° ESE 22:10:53 10° NE daylight
15 May - 23:42:47 10° SW 23:48:40 46° NW 23:54:13 10° NNE daylight
16 May - 01:31:42 10° NW 01:33:07 11° NNW 01:34:31 10° NNW daylight
16 May - 06:46:47 10° N 06:50:49 24° NE 06:54:34 10° E visible
16 May - 08:29:28 10° NW 08:34:03 43° WSW 08:38:15 10° S visible
16 May - 21:24:56 10° SSE 21:29:30 22° ESE 21:33:53 10° ENE daylight
16 May - 23:06:01 10° SW 23:12:09 65° WNW 23:17:55 10° NNE daylight
17 May - 00:53:02 10° WNW 00:56:13 15° NW 00:59:19 10° N daylight
17 May - 06:10:49 10° N 06:14:05 17° NE 06:17:10 10° E visible
17 May - 07:52:53 10° NW 07:57:44 71° WSW 08:02:09 10° SSE visible
17 May - 20:50:16 10° SE 20:53:19 14° ESE 20:56:18 10° ENE daylight
17 May - 22:29:28 10° SSW 22:35:42 88° ESE 22:41:32 10° NNE daylight
18 May - 00:15:10 10° W 00:19:26 20° NW 00:23:29 10° N daylight
18 May - 05:35:11 10° N 05:37:15 12° NE 05:39:16 10° ENE visible
18 May - 07:16:26 10° NNW 07:21:19 72° ENE 07:25:46 10° SE visible
18 May - 09:02:00 10° W 09:03:28 11° WSW 09:04:54 10° WSW visible
18 May - 21:53:12 10° SSW 21:59:17 61° ESE 22:05:02 10° NE daylight
18 May - 23:37:41 10° WSW 23:42:43 26° NW 23:47:29 10° N daylight
19 May - 06:40:06 10° NNW 06:44:49 46° NE 06:49:08 10° SE visible
19 May - 08:24:04 10° WNW 08:27:22 19° WSW 08:30:30 10° SSW visible
19 May - 21:17:12 10° S 21:22:58 41° ESE 21:28:24 10° NE daylight
19 May - 23:00:29 10° WSW 23:06:05 36° NW 23:11:19 10° NNE daylight
20 May - 06:03:53 10° NNW 06:08:14 30° NE 06:12:15 10° ESE visible
20 May - 07:47:01 10° NW 07:51:11 31° WSW 07:55:03 10° S visible
20 May - 20:41:32 10° SSE 20:46:41 28° ESE 20:51:35 10° NE daylight
20 May - 22:23:33 10° SW 22:29:31 51° NW 22:35:06 10° NNE daylight
21 May - 00:11:46 10° NW 00:13:49 12° NW 00:15:49 10° NNW daylight
21 May - 05:27:49 10° N 05:31:34 21° NE 05:35:04 10° E visible
21 May - 07:10:17 10° NW 07:14:55 50° WSW 07:19:11 10° S visible
21 May - 20:06:20 10° SSE 20:10:27 19° ESE 20:14:25 10° ENE daylight
21 May - 21:46:52 10° SW 21:53:02 73° WNW 21:58:46 10° NNE daylight
21 May - 23:33:27 10° WNW 23:36:58 16° NW 23:40:20 10° N daylight
